EW4896 Weather Reports


Display with metric or nautical units.
time (UTC)temp
F
wind
direction
speed
MPH
gust
MPH
rain 1hr
in
rain 24hr
in
rain mn
in
humidity
%
barometer
mb
20220626104521 64 221 0.0 0.0 0.00 0.00 0.00 92 1017.8
20220626103021 64 221 0.0 0.0 0.00 0.00 0.00 92 1017.8
20220626101519 64 221 0.0 0.0 0.00 0.00 0.00 92 1017.8
20220626100018 64 221 0.0 0.0 0.00 0.00 0.00 92 1017.6
20220626094515 64 221 0.0 0.0 0.00 0.00 0.00 91 1017.5
20220626093012 64 221 0.0 0.0 0.00 0.00 0.00 91 1017.4
20220626091526 65 221 0.0 0.0 0.00 0.00 0.00 91 1017.3
20220626090011 65 221 0.0 0.0 0.00 0.00 0.00 91 1017.2
20220626084511 65 221 0.0 0.0 0.00 0.00 0.00 91 1017.1
20220626083008 65 221 0.0 0.0 0.00 0.00 0.00 91 1017.0
20220626081508 65 221 0.0 0.0 0.00 0.00 0.00 92 1016.8
20220626080007 64 221 0.0 0.0 0.00 0.00 0.00 91 1016.9
20220626074506 64 221 0.0 0.0 0.00 0.00 0.00 90 1016.8
20220626073004 65 221 0.0 0.0 0.00 0.00 0.00 90 1016.7
20220626071502 65 221 0.0 0.0 0.00 0.00 0.00 89 1016.8
20220626070059 65 221 0.0 0.0 0.00 0.00 0.00 88 1016.9
20220626064558 65 221 0.0 0.0 0.00 0.00 0.00 88 1017.0
20220626063057 66 221 0.0 0.0 0.00 0.00 0.00 88 1017.1
20220626061555 66 221 0.0 0.0 0.00 0.00 0.00 88 1017.2
20220626060056 66 221 0.0 0.0 0.00 0.00 0.00 87 1017.2
20220626054551 66 221 0.0 0.0 0.00 0.00 0.00 86 1017.2
20220626053049 67 221 0.0 0.0 0.00 0.00 0.00 85 1017.3
20220626051547 67 221 0.0 0.0 0.00 0.00 0.00 84 1017.3
20220626050144 68 221 0.0 0.0 0.00 0.00 0.00 84 1017.1
20220626044537 68 221 0.0 0.0 0.00 0.00 0.00 83 1017.0
20220626043036 68 221 0.0 0.0 0.00 0.00 0.00 82 1017.0
20220626041534 68 221 0.0 0.0 0.00 0.00 0.00 82 1017.0
20220626040033 68 221 0.0 0.0 0.00 0.00 0.00 83 1017.0
20220626034533 68 221 0.0 0.0 0.00 0.00 0.00 82 1017.0
20220626033032 69 221 0.0 0.0 0.00 0.00 0.00 82 1017.1
20220626031531 69 221 0.0 0.0 0.00 0.00 0.00 81 1017.1
20220626030031 70 221 0.0 0.0 0.00 0.00 0.00 80 1017.0
20220626024533 70 221 0.0 0.0 0.00 0.00 0.00 79 1017.0
20220626023029 70 221 0.0 0.0 0.00 0.00 0.00 77 1017.0
20220626021529 71 221 0.0 0.0 0.00 0.00 0.00 77 1017.1
20220626020029 71 221 0.0 0.0 0.00 0.00 0.00 74 1017.1
20220626014528 72 221 0.0 0.0 0.00 0.00 0.00 75 1017.0
20220626013028 73 221 0.0 0.0 0.00 0.00 0.00 73 1016.8
20220626011528 74 221 0.0 0.0 0.00 0.00 0.00 73 1016.7
20220626010027 75 221 0.0 0.0 0.00 0.00 0.00 69 1016.4
20220626004533 76 221 0.0 0.0 0.00 0.00 0.00 69 1016.4
20220626003026 76 221 0.0 0.0 0.00 0.00 0.00 66 1016.3
20220626001525 77 221 0.0 0.0 0.00 0.00 0.00 67 1016.3
20220626000036 78 221 0.0 0.0 0.00 0.00 0.00 66 1016.3
20220625234524 79 221 0.0 0.0 0.00 0.00 0.00 65 1016.3
20220625233023 80 221 0.0 0.0 0.00 0.00 0.00 63 1016.2
20220625231528 81 221 0.0 0.0 0.00 0.00 0.00 59 1016.2
20220625230023 82 221 0.0 0.0 0.00 0.00 0.00 59 1016.1
20220625224522 83 221 0.0 0.0 0.00 0.00 0.00 55 1016.0
20220625223023 84 221 0.0 0.0 0.00 0.00 0.00 54 1016.1
20220625221534 85 221 0.0 0.0 0.00 0.00 0.00 54 1016.1
20220625220021 87 221 0.0 0.0 0.00 0.00 0.00 46 1016.1
20220625214521 88 221 0.0 0.0 0.00 0.00 0.00 45 1016.1
20220625213020 89 221 0.0 0.0 0.00 0.00 0.00 42 1016.1
20220625211520 89 221 0.0 0.0 0.00 0.00 0.00 44 1016.0
20220625210026 89 53 1.0 4.0 0.00 0.00 0.00 41 1016.0
20220625204518 90 106 0.0 0.0 0.00 0.00 0.00 45 1016.0
20220625203018 89 105 0.0 0.0 0.00 0.00 0.00 47 1016.1
20220625201517 89 105 0.0 0.0 0.00 0.00 0.00 45 1015.8
20220625200016 90 105 0.0 0.0 0.00 0.00 0.00 41 1015.6
20220625194513 89 142 0.0 0.0 0.00 0.00 0.00 44 1015.9
20220625193017 89 63 0.0 0.0 0.00 0.00 0.00 42 1016.1
20220625191519 89 63 0.0 0.0 0.00 0.00 0.00 44 1016.3
20220625190009 89 63 0.0 4.0 0.00 0.00 0.00 44 1016.4
20220625184507 89 78 0.0 0.0 0.00 0.00 0.00 46 1016.5
20220625183006 88 66 0.0 0.0 0.00 0.00 0.00 47 1016.7
20220625181602 87 66 0.0 3.0 0.00 0.00 0.00 45 1016.7
20220625180059 87 92 0.0 0.0 0.00 0.00 0.00 54 1017.0
20220625174601 87 105 0.0 1.0 0.00 0.00 0.00 46 1016.9
20220625173057 87 83 0.0 2.0 0.00 0.00 0.00 46 1016.9
20220625171554 87 74 0.0 0.0 0.00 0.00 0.00 53 1017.1
20220625170050 86 350 0.0 2.0 0.00 0.00 0.00 56 1017.1
20220625164548 85 272 0.0 4.0 0.00 0.00 0.00 47 1017.1
20220625163045 85 242 0.0 0.0 0.00 0.00 0.00 52 1017.3
20220625161548 84 242 0.0 0.0 0.00 0.00 0.00 49 1017.3
20220625160039 84 247 0.0 0.0 0.00 0.00 0.00 52 1017.4
20220625154536 84 248 0.0 2.0 0.00 0.00 0.00 53 1017.3
20220625153033 83 341 0.0 0.0 0.00 0.00 0.00 52 1017.3
20220625151529 83 341 0.0 0.0 0.00 0.00 0.00 57 1017.1
20220625150025 82 341 0.0 0.0 0.00 0.00 0.00 59 1017.1
20220625144525 82 340 0.0 0.0 0.00 0.00 0.00 63 1017.0
20220625143018 81 339 0.0 0.0 0.00 0.00 0.00 61 1017.1
20220625141515 80 340 0.0 0.0 0.00 0.00 0.00 59 1017.2
20220625140010 79 340 0.0 0.0 0.00 0.00 0.00 63 1017.1
20220625134505 78 340 0.0 0.0 0.00 0.00 0.00 66 1017.1
20220625133001 77 340 0.0 0.0 0.00 0.00 0.00 71 1017.1
20220625131556 76 340 0.0 0.0 0.00 0.00 0.00 67 1017.1
20220625130052 74 340 0.0 0.0 0.00 0.00 0.00 72 1017.3
20220625124547 72 340 0.0 0.0 0.00 0.00 0.00 74 1017.4
20220625123046 69 340 0.0 0.0 0.00 0.00 0.00 82 1017.3
20220625121539 65 340 0.0 0.0 0.00 0.00 0.00 91 1017.2
20220625120037 63 340 0.0 0.0 0.00 0.00 0.00 95 1017.1
20220625114536 62 340 0.0 0.0 0.00 0.00 0.00 96 1017.2
20220625113033 61 340 0.0 0.0 0.00 0.00 0.00 95 1017.1
20220625111532 61 340 0.0 0.0 0.00 0.00 0.00 95 1017.1
20220625110031 60 340 0.0 0.0 0.00 0.00 0.00 95 1017.1